TimeEDT,TemperatureF,Dew PointF,Humidity,Sea Level PressureIn,VisibilityMPH,Wind Direction,Wind SpeedMPH,Gust SpeedMPH,PrecipitationIn,Events,Conditions,WindDirDegrees,DateUTC
12:53 AM,66.9,50.0,54,29.88,10.0,South,9.2,23.0,N/A,,Partly Cloudy,190,2013-04-24 04:53:00
1:53 AM,68.0,51.1,55,29.86,10.0,South,12.7,20.7,N/A,,Overcast,180,2013-04-24 05:53:00
2:53 AM,66.9,51.1,57,29.83,10.0,South,11.5,24.2,N/A,,Overcast,180,2013-04-24 06:53:00
3:53 AM,66.9,52.0,59,29.82,10.0,South,8.1,18.4,N/A,,Overcast,190,2013-04-24 07:53:00
4:53 AM,66.0,53.1,63,29.83,10.0,SSW,9.2,-,N/A,,Overcast,210,2013-04-24 08:53:00
5:53 AM,66.2,53.6,64,29.83,10.0,SSW,11.5,18.4,N/A,,Overcast,210,2013-04-24 09:53:00
6:49 AM,62.6,55.4,77,29.86,3.0,West,11.5,-,0.07,Rain,Heavy Rain,280,2013-04-24 10:49:00
6:53 AM,61.0,57.0,87,29.86,2.5,West,13.8,-,0.10,Rain-Thunderstorm,Heavy Rain,270,2013-04-24 10:53:00
7:12 AM,59.0,55.4,88,29.85,7.0,West,8.1,-,0.03,Rain,Light Rain,270,2013-04-24 11:12:00
7:37 AM,57.2,55.4,94,29.85,5.0,NW,6.9,-,0.03,Rain,Light Rain,310,2013-04-24 11:37:00
7:48 AM,57.2,55.4,94,29.84,2.5,NW,6.9,-,0.05,Rain,Rain,320,2013-04-24 11:48:00
7:53 AM,57.0,55.0,93,29.83,1.8,NW,9.2,-,0.07,Rain,Heavy Rain,310,2013-04-24 11:53:00
8:13 AM,55.4,55.4,100,29.84,2.0,NW,9.2,-,0.08,Rain,Rain,310,2013-04-24 12:13:00
8:26 AM,53.6,53.6,100,29.86,3.0,WNW,18.4,21.9,0.12,Rain,Heavy Rain,300,2013-04-24 12:26:00
8:47 AM,51.8,48.2,88,29.87,7.0,WNW,15.0,-,0.14,Rain,Rain,300,2013-04-24 12:47:00
8:53 AM,51.1,48.9,92,29.86,4.0,NNW,9.2,-,0.16,Rain,Rain,330,2013-04-24 12:53:00
8:59 AM,50.0,48.2,94,29.85,2.5,North,4.6,18.4,0.03,Rain,Heavy Rain,360,2013-04-24 12:59:00
9:06 AM,50.0,48.2,94,29.85,2.5,NNW,5.8,-,0.07,Rain,Heavy Rain,340,2013-04-24 13:06:00
9:20 AM,50.0,48.2,94,29.90,1.5,WNW,16.1,20.7,0.18,Rain,Heavy Rain,300,2013-04-24 13:20:00
9:31 AM,48.2,46.4,93,29.91,1.5,WNW,23.0,28.8,0.26,Rain,Heavy Rain,300,2013-04-24 13:31:00
9:33 AM,48.2,46.4,93,29.91,2.0,WNW,20.7,28.8,0.26,Rain,Heavy Rain,300,2013-04-24 13:33:00
9:42 AM,48.2,46.4,93,29.90,1.5,WNW,6.9,-,0.33,Rain,Heavy Rain,300,2013-04-24 13:42:00
9:53 AM,48.0,46.0,93,29.87,2.0,Calm,Calm,-,0.37,Rain,Rain,0,2013-04-24 13:53:00
9:57 AM,48.2,46.4,93,29.88,3.0,NW,5.8,-,0.01,Rain,Rain,320,2013-04-24 13:57:00
10:01 AM,48.2,46.4,93,29.89,2.5,WNW,6.9,-,0.03,Rain,Heavy Rain,300,2013-04-24 14:01:00
10:08 AM,48.2,46.4,93,29.88,3.0,NW,8.1,-,0.04,Rain,Rain,310,2013-04-24 14:08:00
10:29 AM,48.2,46.4,93,29.87,4.0,NW,6.9,-,0.08,Rain,Rain,320,2013-04-24 14:29:00
10:37 AM,48.2,46.4,93,29.85,4.0,Variable,3.5,-,0.09,Rain,Rain,0,2013-04-24 14:37:00
10:53 AM,46.9,45.0,93,29.88,9.0,NW,9.2,-,0.11,Rain,Light Rain,320,2013-04-24 14:53:00
11:20 AM,46.4,42.8,87,29.98,10.0,WNW,17.3,27.6,0.00,Rain,Light Rain,290,2013-04-24 15:20:00
11:29 AM,46.4,42.8,87,29.97,10.0,WNW,16.1,24.2,0.00,Rain,Light Rain,290,2013-04-24 15:29:00
11:53 AM,45.0,42.1,90,30.01,2.5,WNW,16.1,24.2,0.01,Rain,Light Rain,290,2013-04-24 15:53:00
12:09 PM,44.6,42.8,93,30.03,3.0,WNW,13.8,-,0.00,Rain,Light Rain,290,2013-04-24 16:09:00
12:22 PM,44.6,42.8,93,30.04,2.0,WNW,13.8,23.0,0.00,Rain,Light Rain,300,2013-04-24 16:22:00
12:46 PM,44.6,42.8,93,30.05,3.0,WNW,16.1,23.0,0.01,Rain,Light Rain,300,2013-04-24 16:46:00
12:53 PM,44.1,41.0,89,30.05,3.0,WNW,13.8,21.9,0.01,Rain,Light Rain,290,2013-04-24 16:53:00
1:00 PM,44.6,42.8,93,30.04,4.0,WNW,9.2,-,0.00,Rain,Light Rain,300,2013-04-24 17:00:00
1:53 PM,45.0,39.9,82,30.07,10.0,WNW,16.1,24.2,0.00,,Overcast,290,2013-04-24 17:53:00
2:00 PM,44.6,39.2,81,30.07,10.0,West,16.1,-,N/A,,Overcast,280,2013-04-24 18:00:00
2:53 PM,46.9,37.9,71,30.09,10.0,WNW,13.8,23.0,N/A,,Overcast,300,2013-04-24 18:53:00
3:53 PM,46.9,37.9,71,30.12,10.0,WNW,13.8,-,N/A,,Overcast,290,2013-04-24 19:53:00
4:53 PM,48.0,37.9,68,30.14,10.0,WNW,9.2,-,N/A,,Overcast,290,2013-04-24 20:53:00
5:01 PM,48.2,37.4,66,30.14,10.0,WNW,11.5,-,N/A,,Overcast,290,2013-04-24 21:01:00
5:53 PM,48.0,36.0,63,30.17,10.0,West,11.5,-,N/A,,Overcast,280,2013-04-24 21:53:00
6:05 PM,46.4,35.6,66,30.17,10.0,NW,15.0,23.0,N/A,,Overcast,310,2013-04-24 22:05:00
6:24 PM,48.2,35.6,62,30.18,10.0,WNW,16.1,-,N/A,,Overcast,300,2013-04-24 22:24:00
6:53 PM,48.0,34.0,58,30.20,10.0,West,10.4,-,N/A,,Overcast,280,2013-04-24 22:53:00
7:53 PM,46.9,33.1,59,30.21,10.0,WNW,12.7,-,N/A,,Mostly Cloudy,290,2013-04-24 23:53:00
8:53 PM,43.0,34.0,71,30.24,10.0,West,4.6,-,N/A,,Clear,280,2013-04-25 00:53:00
9:53 PM,44.1,34.0,68,30.25,10.0,Calm,Calm,-,N/A,,Clear,0,2013-04-25 01:53:00
10:53 PM,39.9,35.1,83,30.27,10.0,Calm,Calm,-,N/A,,Clear,0,2013-04-25 02:53:00
11:53 PM,39.0,36.0,89,30.29,10.0,Calm,Calm,-,N/A,,Clear,0,2013-04-25 03:53:00